When you browse on this site, cookies collect data to enhance your experience and personalize the content and advertising you see.
Visit our Privacy Policy to learn more. By continuing to use the site, you agree to this use of cookies and data.
  • In Hungary
  • List of Countries
  • For 7 days
  • Water Temperature
  • Satellite Maps
  • Weather Map
  • News
  • Weather Widgets
  • user-avatar
    Login

    Hourly Weather Managazovo

    Today, 21 November, Wednesday

    Time Temperature Precipitation Wind Pressure Humidity
    00:00 -5°C° 0 mm 4 mps 750 mmHg 90%
    01:00 -5°C° 0 mm 4 mps 749 mmHg 89%
    02:00 -6°C° 0 mm 5 mps 749 mmHg 88%
    03:00 -6°C° 0 mm 5 mps 748 mmHg 87%
    04:00 -5°C° 0 mm 4 mps 747 mmHg 88%
    05:00 -6°C° 0.1 mm 5 mps 746 mmHg 88%
    06:00 -6°C° 0.1 mm 5 mps 746 mmHg 88%
    07:00 -6°C° 0.1 mm 6 mps 745 mmHg 87%
    08:00 -6°C° 0.3 mm 6 mps 744 mmHg 88%
    09:00 -6°C° 0.3 mm 6 mps 744 mmHg 89%
    10:00 -6°C° 0 mm 6 mps 743 mmHg 90%
    11:00 -6°C° 0.5 mm 6 mps 742 mmHg 90%
    12:00 -6°C° 0.5 mm 6 mps 742 mmHg 91%
    13:00 -6°C° 0.5 mm 6 mps 741 mmHg 91%
    14:00 -6°C° 0.4 mm 5 mps 741 mmHg 91%
    15:00 -7°C° 0.4 mm 5 mps 740 mmHg 92%
    16:00 -7°C° 0 mm 4 mps 739 mmHg 91%
    17:00 -7°C° 0.2 mm 4 mps 739 mmHg 92%
    18:00 -5°C° 0.2 mm 4 mps 739 mmHg 92%
    19:00 -5°C° 0.2 mm 4 mps 739 mmHg 93%
    20:00 -6°C° 0.2 mm 5 mps 739 mmHg 91%
    21:00 -6°C° 0.2 mm 5 mps 738 mmHg 89%
    22:00 -7°C° 0.2 mm 5 mps 738 mmHg 87%
    23:00 -7°C° 0.1 mm 5 mps 738 mmHg 87%

    Tomorrow, 22 November, Thursday

    Time Temperature Precipitation Wind Pressure Humidity
    00:00 -8°C° 0.1 mm 5 mps 739 mmHg 87%
    01:00 -10°C° 0.1 mm 5 mps 739 mmHg 87%
    02:00 -10°C° 0.1 mm 5 mps 739 mmHg 88%
    03:00 -9°C° 0.1 mm 4 mps 739 mmHg 89%
    04:00 -9°C° 0.1 mm 4 mps 739 mmHg 90%
    05:00 -9°C° 0.2 mm 4 mps 739 mmHg 91%
    06:00 -9°C° 0.2 mm 4 mps 739 mmHg 92%
    07:00 -10°C° 0.2 mm 4 mps 739 mmHg 93%
    08:00 -10°C° 0.2 mm 4 mps 739 mmHg 92%
    09:00 -9°C° 0.2 mm 4 mps 740 mmHg 91%
    10:00 -9°C° 0.2 mm 4 mps 740 mmHg 90%
    11:00 -8°C° 0 mm 3 mps 740 mmHg 89%
    12:00 -8°C° 0 mm 3 mps 739 mmHg 87%
    13:00 -9°C° 0 mm 3 mps 739 mmHg 86%
    14:00 -10°C° 0 mm 4 mps 739 mmHg 88%
    15:00 -10°C° 0 mm 4 mps 738 mmHg 90%
    16:00 -12°C° 0 mm 5 mps 738 mmHg 93%
    17:00 -11°C° 0.5 mm 5 mps 737 mmHg 92%
    18:00 -10°C° 0.5 mm 6 mps 736 mmHg 92%
    19:00 -9°C° 0.5 mm 7 mps 735 mmHg 92%
    20:00 -9°C° 0.5 mm 7 mps 734 mmHg 91%
    21:00 -9°C° 0.5 mm 7 mps 733 mmHg 91%
    22:00 -10°C° 0.5 mm 8 mps 732 mmHg 90%
    23:00 -10°C° 0.6 mm 8 mps 732 mmHg 91%

    Day after tomorrow, 23 November, Friday

    Time Temperature Precipitation Wind Pressure Humidity
    00:00 -10°C° 0.6 mm 8 mps 732 mmHg 91%
    01:00 -8°C° 0.6 mm 8 mps 731 mmHg 91%
    02:00 -11°C° 0.3 mm 7 mps 732 mmHg 90%
    03:00 -11°C° 0.3 mm 5 mps 732 mmHg 89%
    04:00 -11°C° 0.3 mm 4 mps 732 mmHg 87%
    05:00 -12°C° 0 mm 4 mps 733 mmHg 89%
    06:00 -14°C° 0 mm 4 mps 733 mmHg 90%
    07:00 -15°C° 0 mm 4 mps 733 mmHg 92%
    08:00 -15°C° 0 mm 4 mps 734 mmHg 91%
    09:00 -14°C° 0 mm 4 mps 735 mmHg 91%
    10:00 -14°C° 0 mm 4 mps 735 mmHg 90%
    11:00 -13°C° 0 mm 5 mps 736 mmHg 88%
    12:00 -13°C° 0 mm 5 mps 737 mmHg 87%
    13:00 -12°C° 0 mm 6 mps 737 mmHg 85%
    14:00 -13°C° 0 mm 5 mps 738 mmHg 84%
    15:00 -14°C° 0 mm 5 mps 739 mmHg 84%
    16:00 -15°C° 0 mm 5 mps 740 mmHg 84%
    17:00 -15°C° 0 mm 5 mps 741 mmHg 84%
    18:00 -17°C° 0 mm 5 mps 742 mmHg 85%
    19:00 -18°C° 0 mm 5 mps 742 mmHg 85%
    20:00 -18°C° 0 mm 4 mps 743 mmHg 87%
    21:00 -19°C° 0 mm 4 mps 744 mmHg 90%
    22:00 -19°C° 0 mm 3 mps 744 mmHg 92%
    23:00 -19°C° 0 mm 3 mps 745 mmHg 93%

    24 November, Saturday

    Time Temperature Precipitation Wind Pressure Humidity
    00:00 -19°C° 0 mm 3 mps 745 mmHg 95%
    01:00 -21°C° 0 mm 3 mps 746 mmHg 96%
    02:00 -21°C° 0 mm 3 mps 746 mmHg 96%
    03:00 -19°C° 0 mm 2 mps 747 mmHg 97%
    04:00 -19°C° 0 mm 2 mps 747 mmHg 97%
    05:00 -18°C° 0 mm 2 mps 747 mmHg 97%
    06:00 -17°C° 0 mm 2 mps 747 mmHg 97%
    07:00 -16°C° 0 mm 2 mps 747 mmHg 97%
    08:00 -16°C° 0.1 mm 3 mps 747 mmHg 96%
    09:00 -15°C° 0.1 mm 4 mps 747 mmHg 94%
    10:00 -14°C° 0.1 mm 4 mps 748 mmHg 93%
    11:00 -13°C° 0.1 mm 5 mps 747 mmHg 92%
    12:00 -11°C° 0.1 mm 5 mps 747 mmHg 91%
    13:00 -10°C° 0.1 mm 6 mps 747 mmHg 90%
    14:00 -10°C° 0.2 mm 6 mps 746 mmHg 90%
    15:00 -11°C° 0.2 mm 7 mps 746 mmHg 90%
    16:00 -11°C° 0.2 mm 7 mps 746 mmHg 90%
    17:00 -11°C° 0.3 mm 7 mps 746 mmHg 89%
    18:00 -11°C° 0.3 mm 8 mps 745 mmHg 88%
    19:00 -11°C° 0.3 mm 8 mps 745 mmHg 88%
    20:00 -10°C° 0.2 mm 8 mps 745 mmHg 88%
    21:00 -10°C° 0.2 mm 8 mps 745 mmHg 88%
    22:00 -9°C° 0.2 mm 7 mps 745 mmHg 88%
    23:00 -8°C° 0.1 mm 7 mps 745 mmHg 89%

    25 November, Sunday

    Time Temperature Precipitation Wind Pressure Humidity
    00:00 -8°C° 0.1 mm 7 mps 746 mmHg 89%
    01:00 -8°C° 0.1 mm 7 mps 746 mmHg 89%
    02:00 -8°C° 0.1 mm 7 mps 746 mmHg 90%
    03:00 -8°C° 0.1 mm 7 mps 746 mmHg 90%
    04:00 -8°C° 0.1 mm 7 mps 746 mmHg 90%
    05:00 -8°C° 0.2 mm 7 mps 746 mmHg 90%
    06:00 -8°C° 0.2 mm 7 mps 746 mmHg 90%
    07:00 -8°C° 0.2 mm 6 mps 745 mmHg 90%
    08:00 -8°C° 0.4 mm 7 mps 745 mmHg 91%
    09:00 -8°C° 0.4 mm 7 mps 745 mmHg 91%
    10:00 -8°C° 0.4 mm 7 mps 745 mmHg 91%
    11:00 -7°C° 0.6 mm 7 mps 744 mmHg 91%
    12:00 -7°C° 0.6 mm 7 mps 744 mmHg 92%
    13:00 -7°C° 0.6 mm 7 mps 744 mmHg 92%
    14:00 -7°C° 0.5 mm 7 mps 744 mmHg 91%
    15:00 -7°C° 0.5 mm 7 mps 744 mmHg 91%
    16:00 -6°C° 0.5 mm 6 mps 744 mmHg 91%
    17:00 -6°C° 0.1 mm 6 mps 745 mmHg 90%
    18:00 -6°C° 0.1 mm 6 mps 745 mmHg 90%
    19:00 -6°C° 0.1 mm 6 mps 746 mmHg 90%
    20:00 -6°C° 0 mm 5 mps 747 mmHg 91%
    21:00 -6°C° 0 mm 5 mps 747 mmHg 91%
    22:00 -7°C° 0 mm 5 mps 748 mmHg 92%
    23:00 -7°C° 0 mm 4 mps 748 mmHg 93%

    26 November, Monday

    Time Temperature Precipitation Wind Pressure Humidity
    00:00 -8°C° 0 mm 4 mps 749 mmHg 94%
    01:00 -8°C° 0 mm 4 mps 749 mmHg 95%
    02:00 -7°C° 0 mm 3 mps 749 mmHg 95%
    03:00 -8°C° 0 mm 3 mps 750 mmHg 96%
    04:00 -7°C° 0 mm 2 mps 750 mmHg 96%
    05:00 -8°C° 0 mm 2 mps 750 mmHg 96%
    06:00 -8°C° 0 mm 2 mps 750 mmHg 97%
    07:00 -8°C° 0 mm 2 mps 750 mmHg 97%
    08:00 -8°C° 0 mm 2 mps 750 mmHg 97%
    09:00 -9°C° 0 mm 3 mps 750 mmHg 96%
    10:00 -9°C° 0 mm 3 mps 750 mmHg 96%
    11:00 -8°C° 0 mm 3 mps 750 mmHg 96%
    12:00 -8°C° 0 mm 3 mps 750 mmHg 95%
    13:00 -7°C° 0 mm 3 mps 750 mmHg 95%
    14:00 -7°C° 0.1 mm 3 mps 749 mmHg 95%
    15:00 -7°C° 0.1 mm 3 mps 749 mmHg 95%
    16:00 -6°C° 0.1 mm 2 mps 748 mmHg 96%
    17:00 -7°C° 0.4 mm 3 mps 748 mmHg 96%
    18:00 -7°C° 0.4 mm 3 mps 747 mmHg 96%
    19:00 -7°C° 0.4 mm 3 mps 746 mmHg 96%
    20:00 -6°C° 0.6 mm 3 mps 746 mmHg 96%
    21:00 -5°C° 0.6 mm 3 mps 745 mmHg 96%
    22:00 -5°C° 0.6 mm 3 mps 744 mmHg 96%
    23:00 -4°C° 0.7 mm 3 mps 744 mmHg 96%
    Show more